Other Public Products
Issued by NWS Grand Forks, ND

Home | Current Version | Previous Version | Graphics & Text | Print | Product List | Glossary On
Versions: 1 2 3 4 5 6 7 8 9 10 11 12 13 14 15 16 17 18 19 20 21 22 23 24 25 26 27 28 29 30 31 32 33 34 35 36 37 38 39 40 41 42 43 44 45 46 47 48 49 50
000
FPUS83 KFGF 161231
OPUFGF
PRAIRIE TO PINES WEATHER ROUNDUP
NATIONAL WEATHER SERVICE EASTERN NORTH DAKOTA/GRAND FORKS ND
600 AM CST MON JAN 16 2017

 **SATELLITE DATA USED TO AUGMENT SKY COVER AT AUTOMATED STATIONS**
 *****  WEATHER ACROSS EASTERN NORTH DAKOTA  *****

CITY           SKY/WX    TMP DP  RH WIND       PRES   REMARKS
GRAND FORKS    FAIR       6   0  76 S9        30.03S WCI  -8
6HR MIN TEMP:   5; 6HR MAX TEMP:   8;

GRAND FORKS AF CLEAR     10   2  71 SW9       30.03R WCI  -3
GRAND CITY NWS NOT AVBL
BUXTON           N/A      9   6  88 S9          N/A  WCI  -4
DEVILS LAKE    FAIR       8   4  83 W13       30.00R WCI  -8
6HR MIN TEMP:   7; 6HR MAX TEMP:  13;

FARGO          FAIR      10   7  87 S9        30.07S WCI  -3
6HR MIN TEMP:   6; 6HR MAX TEMP:  13;

WAHPETON ARPT  FAIR       9   5  85 SE3       30.11S
$$

 *****  WEATHER ACROSS CENTRAL AND WESTERN NORTH DAKOTA  *****

CITY           SKY/WX    TMP DP  RH WIND       PRES   REMARKS
JAMESTOWN      FAIR      11   4  73 W12       30.02F WCI  -3
6HR MIN TEMP:  -1; 6HR MAX TEMP:  14;

BISMARCK       FAIR      -3  -8  79 S3        30.07S
6HR MIN TEMP:  -9; 6HR MAX TEMP:   1;

MINOT          FAIR      15   7  70 W9        30.01R WCI   3
6HR MIN TEMP:  14; 6HR MAX TEMP:  21;

MINOT AFB      FAIR       8   3  80 W6        30.01R WCI  -2
6HR MIN TEMP:   8; 6HR MAX TEMP:  18;

GARRISON         N/A     13   5  70 W13       30.03R WCI  -2
6HR MIN TEMP:   8; 6HR MAX TEMP:  17;

WILLISTON      FAIR       7   3  84 SW5       30.07S WCI  -2
6HR MIN TEMP:   3; 6HR MAX TEMP:  13;

DICKINSON      FAIR      14   6  70 W15       30.01R WCI  -1
6HR MIN TEMP:  11; 6HR MAX TEMP:  19;

HETTINGER      FAIR      12   4  70 NW17      30.06R WCI  -5
6HR MIN TEMP:   5; 6HR MAX TEMP:  15;

$$

 *****  OTHER OBSERVATIONS NORTHEAST NORTH DAKOTA  *****

CITY           SKY/WX    TMP DP  RH WIND       PRES   REMARKS
WALHALLA       NOT AVBL
LANGDON        NOT AVBL
CAVALIER         N/A      3   0  85 S6        30.01R WCI  -8
GRAFTON        FAIR       5   1  85 S10       30.04R WCI -10
CANDO          NOT AVBL
FORT TOTTEN      N/A     14   6  70 SW6       29.95S WCI   5
ROLLA            N/A    N/A N/A N/A MISG        N/A
RUGBY            N/A      1   0  92 SW14      30.01R WCI -17
 ***** THE ABOVE OBSERVATIONS ARE NON NWS ARE NOT QUALITY
        CONTROLLED AND MAY MIS-REPORT RAIN FOR SNOW...
$$

 *****  OTHER OBSERVATIONS SOUTHEAST NORTH DAKOTA *****

CITY           SKY/WX    TMP DP  RH WIND       PRES   REMARKS
COOPERSTOWN    FAIR       1  -2  85 W7        30.02F WCI -11
VALLEY CITY    FAIR      10   5  79 SW7       30.05S WCI   0
OAKES          NOT AVBL
GWINNER        FAIR      10   9  92 SW9       30.08S WCI  -2
SHEYENNE NWR     N/A      3  -2  80 SW7       29.95S WCI  -9
BUFFALO          N/A      8   1  74 SW5         N/A  WCI   0
WYNDMERE         N/A     -2  -6  84 SW1         N/A
 ***** THE ABOVE OBSERVATIONS ARE NON NWS ARE NOT QUALITY
       CONTROLLED AND MAY MIS-REPORT RAIN FOR SNOW...
$$

  *****  WEATHER ACROSS NORTHERN MINNESOTA  *****

CITY           SKY/WX    TMP DP  RH WIND       PRES   REMARKS
FLAG ISLAND    FAIR       7   3  85 SE5       30.01R WCI  -2
WARROAD        FAIR      10   7  85 S3        30.01R
ROSEAU         FAIR       7   1  78 S3        30.01R
HALLOCK        FAIR       3   0  85 SE8       30.01R WCI -10
THF RVR FALLS  FAIR       8   5  87 S14       30.03S WCI  -8
6HR MIN TEMP:   6; 6HR MAX TEMP:  14;

HALSTAD          N/A      6   1  83 S9          N/A  WCI  -8
FOSSTON        FAIR      12  10  92 S9        30.05R WCI   0
BAUDETTE       FAIR       7   4  87 SE5       30.01R WCI  -2
6HR MIN TEMP:   4; 6HR MAX TEMP:  12;

WASKISH        FAIR       5   3  92 CALM      30.03R
CROOKSTON      FAIR       3   1  92 S8        30.06S WCI -10
$$
  *****  WEATHER ACROSS CENTRAL AND WEST MINNESOTA  *****

CITY           SKY/WX    TMP DP  RH WIND       PRES   REMARKS
BEMIDJI        FAIR       6   3  91 CALM      30.03S
PARK RAPIDS    FAIR       5   0  79 S7        30.06S HAZE    WCI  -7
6HR MIN TEMP:   3; 6HR MAX TEMP:  15;

WADENA         FAIR       1  -2  85 SE3       30.08S FOG
DETROIT LAKES    N/A     14  12  92 S8        30.06F FOG     WCI   3
MOORHEAD       FAIR      12   9  85 S9        30.08S WCI   0
FERGUS FALLS   FAIR      10   9  92 SE7       30.15S WCI   0
ELBOW LAKE     FAIR      13  11  90 E8        30.10S FOG     WCI   2
6HR MIN TEMP:  13; 6HR MAX TEMP:  17;

MORRIS MN      FAIR      10   7  85 SE7       30.10F WCI   0
STAPLES        FAIR       0  -2  92 CALM      30.09F
WHEATON        FAIR       9   7  92 SE3       30.12S
$$
  *****  WEATHER ELSEWHERE ACROSS MINNESOTA  *****

CITY           SKY/WX    TMP DP  RH WIND       PRES   REMARKS
DULUTH         FAIR      15  13  91 W8        30.10R FOG     WCI   4
6HR MIN TEMP:  15; 6HR MAX TEMP:  21;

INTRNTL FALLS  FAIR       3   0  87 CALM      30.03S
6HR MIN TEMP:   0; 6HR MAX TEMP:  16;

ELY            FAIR       7   3  85 CALM      30.06S FOG
CLOQUET        FAIR      16  12  86 SW7       30.10F FOG     WCI   6
BRAINERD       FAIR       3   2  95 S3        30.11F FOG
6HR MIN TEMP:   1; 6HR MAX TEMP:  16;

HIBBING        FAIR      -7 -10  87 CALM      30.08R
6HR MIN TEMP:  -7; 6HR MAX TEMP:  16;

ALEXANDRIA     FAIR      10   9  95 S7        30.10S FOG     WCI  -1
6HR MIN TEMP:   8; 6HR MAX TEMP:  19;

SAINT CLOUD    FAIR       6   4  91 CALM      30.15S FOG
6HR MIN TEMP:   6; 6HR MAX TEMP:  18;

MINNEAPOLIS    FAIR      18  13  80 SE5       30.17F WCI  11
6HR MIN TEMP:  14; 6HR MAX TEMP:  22;

$$

  *****  WEATHER ACROSS SOUTH DAKOTA  *****

CITY           SKY/WX    TMP DP  RH WIND       PRES   REMARKS
SIOUX FALLS    CLOUDY    25  20  81 N6        30.09S WCI  18
6HR MIN TEMP:  20; 6HR MAX TEMP:  25;

BROOKINGS      FAIR      12   9  87 CALM      30.07F
WATERTOWN      FAIR      12   9  87 CALM      30.08S FOG
6HR MIN TEMP:   8; 6HR MAX TEMP:  17;

HURON          FAIR       7   4  87 N3        30.10F
6HR MIN TEMP:   7; 6HR MAX TEMP:   9;

SISSETON         N/A     17  13  84 S7        30.08S WCI   8
ABERDEEN       FAIR      -1  -6  79 S7        30.10S WCI -14
6HR MIN TEMP:  -2; 6HR MAX TEMP:   1;

MITCHELL       FAIR      16  15  96 N3        30.10R
PIERRE         FAIR       7   4  87 NW3       30.07F
6HR MIN TEMP:   7; 6HR MAX TEMP:  11;

MOBRIDGE       FAIR       0  -5  79 CALM      30.05R
RAPID CITY     MOCLDY    23  12  62 NW9       30.05S WCI  13
6HR MIN TEMP:  18; 6HR MAX TEMP:  29;

$$

  *****  SOME WEATHER IN NEARBY STATES *****

CITY           SKY/WX    TMP DP  RH WIND       PRES   REMARKS
GLASGOW MT     FAIR       4   0  83 NW10      30.10R WCI -11
6HR MIN TEMP:   1; 6HR MAX TEMP:   6;

GREAT FALLS MT FAIR      22   9  57 SW17      30.10F WCI   8
6HR MIN TEMP:  21; 6HR MAX TEMP:  25;

CHEYENNE WY    CLOUDY    30  17  58 N17G26    29.96F WCI  18
6HR MIN TEMP:  30; 6HR MAX TEMP:  32;

SCOTTSBLUFF NE CLOUDY    35  25  66 NW9       30.01R
6HR MIN TEMP:  31; 6HR MAX TEMP:  35;

OMAHA NE       CLOUDY    33  29  85 NE7       30.04F FOG
6HR MIN TEMP:  32; 6HR MAX TEMP:  33; 6HR PCP:  0.02;

DES MOINES IA  FRZ RAIN  32  30  92 E7        30.11F FOG
6HR MIN TEMP:  31; 6HR MAX TEMP:  32; 6HR PCP:  0.08;

DAVENPORT IA   CLOUDY    31  30  96 E12       30.20F FOG     WCI  22
6HR MIN TEMP:  31; 6HR MAX TEMP:  32; 6HR PCP:  0.09;

CHICAGO IL     FRZ RAIN  33  29  85 N5        30.26R
6HR MIN TEMP:  30; 6HR MAX TEMP:  33; 6HR PCP:  0.04;

EAU CLAIRE WI  FAIR       5   2  87 N5        30.20F FOG     WCI  -4
6HR MIN TEMP:   4; 6HR MAX TEMP:   9;

LA CROSSE WI   CLOUDY   N/A N/A N/A SE5       30.23S
$$

  *****  SOME NATIONAL WEATHER *****

CITY           SKY/WX    TMP DP  RH WIND       PRES   REMARKS
LA GUARDIA NY  FAIR      32  18  56 CALM      30.46R
6HR MIN TEMP:  31; 6HR MAX TEMP:  34;                              C1F1C2F2C3F3C4F4C5F5C6F6C7F7C8F8C9F9CaFaCbFbCcFcCdFdCe!



USA.gov is the U.S. government's official web portal to all federal, state and local government web resources and services.